MRN77 LFKJ-LEMH

Flight info

Callsign MRN77
Flight time 0h 54m
Altitude 27000
Route NEGAT1R/20 NEGAT UN851 NESUL DCT MORSS
Aircraft TBM8/L-SDFGRWY/S

Departure

Time 2026-04-27 20:52
Airport Ajaccio Napoléon Bonaparte airport (LFKJ)

Arrival

Time 2026-04-27 21:46
Airport Menorca Airport (LEMH)
Time Latitude Longitude Altitude Speed Heading
2026-04-27 20:52 41.74766 8.46226 11693 ft 193 kts 234°
2026-04-27 20:52 41.73959 8.44766 12101 ft 195 kts 234°
2026-04-27 20:53 41.73151 8.43303 12505 ft 196 kts 234°
2026-04-27 20:53 41.72337 8.41831 12916 ft 197 kts 234°
2026-04-27 20:53 41.71837 8.40925 13159 ft 198 kts 235°
2026-04-27 20:53 41.71057 8.39515 13529 ft 199 kts 235°
2026-04-27 20:54 41.69396 8.36517 14277 ft 202 kts 235°
2026-04-27 20:54 41.68557 8.35005 14626 ft 203 kts 235°
2026-04-27 20:54 41.67713 8.33481 14972 ft 205 kts 235°
2026-04-27 20:55 41.66863 8.31950 15319 ft 206 kts 235°
2026-04-27 20:55 41.66047 8.30481 15646 ft 207 kts 234°
2026-04-27 20:55 41.65186 8.28928 15989 ft 209 kts 234°
2026-04-27 20:55 41.64319 8.27368 16333 ft 210 kts 234°
2026-04-27 20:56 41.63484 8.25869 16671 ft 211 kts 234°
2026-04-27 20:56 41.62605 8.24290 17024 ft 213 kts 234°
2026-04-27 20:56 41.61720 8.22699 17373 ft 214 kts 234°
2026-04-27 20:56 41.60831 8.21102 17725 ft 215 kts 234°
2026-04-27 20:57 41.59977 8.19569 18053 ft 217 kts 234°
2026-04-27 20:57 41.59123 8.18034 18381 ft 218 kts 234°
2026-04-27 20:57 41.58261 8.16490 18674 ft 219 kts 234°
2026-04-27 20:57 41.57394 8.14938 18961 ft 220 kts 234°
2026-04-27 20:58 41.56484 8.13309 19268 ft 221 kts 234°
2026-04-27 20:58 41.55608 8.11742 19554 ft 222 kts 234°
2026-04-27 20:58 41.54682 8.10088 19856 ft 223 kts 234°
2026-04-27 20:58 41.53756 8.08431 20152 ft 224 kts 234°
2026-04-27 20:59 41.52821 8.06761 20453 ft 225 kts 233°
2026-04-27 20:59 41.51932 8.05174 20728 ft 226 kts 233°
2026-04-27 20:59 41.50989 8.03491 21029 ft 227 kts 233°
2026-04-27 20:59 41.50041 8.01800 21321 ft 228 kts 233°
2026-04-27 21:00 41.49090 8.00105 21610 ft 229 kts 233°
2026-04-27 21:00 41.48180 7.98484 21883 ft 231 kts 233°
2026-04-27 21:00 41.47216 7.96768 22164 ft 232 kts 233°
2026-04-27 21:00 41.46244 7.95039 22450 ft 233 kts 233°
2026-04-27 21:01 41.45256 7.93281 22735 ft 235 kts 233°
2026-04-27 21:01 41.44273 7.91534 23013 ft 236 kts 233°
2026-04-27 21:01 41.43286 7.89780 23285 ft 237 kts 233°
2026-04-27 21:01 41.42294 7.88020 23553 ft 239 kts 233°
2026-04-27 21:02 41.41327 7.86212 23811 ft 241 kts 237°
2026-04-27 21:02 41.40486 7.84275 24030 ft 243 kts 242°
2026-04-27 21:02 41.39708 7.82269 24242 ft 244 kts 243°
2026-04-27 21:02 41.38930 7.80250 24465 ft 246 kts 243°
2026-04-27 21:03 41.38144 7.78225 24678 ft 247 kts 243°
2026-04-27 21:03 41.37390 7.76301 24883 ft 248 kts 243°
2026-04-27 21:03 41.36583 7.74262 25095 ft 250 kts 243°
2026-04-27 21:03 41.35768 7.72212 25313 ft 251 kts 243°
2026-04-27 21:04 41.34947 7.70159 25527 ft 252 kts 243°
2026-04-27 21:04 41.34122 7.68098 25745 ft 253 kts 244°
2026-04-27 21:04 41.33291 7.66028 25940 ft 254 kts 244°
2026-04-27 21:04 41.32456 7.63948 26145 ft 256 kts 244°
2026-04-27 21:05 41.31616 7.61860 26351 ft 257 kts 244°
2026-04-27 21:05 41.30772 7.59763 26553 ft 258 kts 244°
2026-04-27 21:05 41.29924 7.57657 26760 ft 259 kts 244°
2026-04-27 21:05 41.29072 7.55544 26965 ft 260 kts 245°
2026-04-27 21:06 41.28217 7.53419 27092 ft 264 kts 245°
2026-04-27 21:06 41.27349 7.51244 27105 ft 272 kts 245°
2026-04-27 21:06 41.26452 7.48981 27114 ft 279 kts 245°
2026-04-27 21:06 41.25540 7.46673 27116 ft 285 kts 246°
2026-04-27 21:07 41.24607 7.44317 27116 ft 290 kts 246°
2026-04-27 21:07 41.23656 7.41928 27116 ft 295 kts 246°
2026-04-27 21:07 41.22687 7.39508 27112 ft 298 kts 245°
2026-04-27 21:07 41.21704 7.37075 27111 ft 300 kts 245°
2026-04-27 21:08 41.20714 7.34628 27109 ft 301 kts 246°
2026-04-27 21:08 41.19723 7.32182 27111 ft 302 kts 246°
2026-04-27 21:08 41.18778 7.29853 27111 ft 303 kts 246°
2026-04-27 21:08 41.17776 7.27384 27112 ft 304 kts 246°
2026-04-27 21:09 41.16771 7.24910 27107 ft 305 kts 246°
2026-04-27 21:09 41.15763 7.22433 27111 ft 305 kts 246°
2026-04-27 21:09 41.14753 7.19952 27107 ft 306 kts 246°
2026-04-27 21:09 41.13739 7.17470 27107 ft 306 kts 246°
2026-04-27 21:10 41.12723 7.14987 27109 ft 307 kts 246°
2026-04-27 21:10 41.12047 7.13338 27105 ft 307 kts 246°
2026-04-27 21:10 41.11208 7.11290 27110 ft 307 kts 246°
2026-04-27 21:10 41.10188 7.08805 27107 ft 307 kts 246°
2026-04-27 21:11 41.09167 7.06320 27109 ft 307 kts 246°
2026-04-27 21:11 41.08145 7.03835 27111 ft 307 kts 246°
2026-04-27 21:11 41.07453 7.02154 27109 ft 307 kts 246°
2026-04-27 21:11 41.06023 6.98909 27107 ft 308 kts 244°
2026-04-27 21:12 41.05271 6.97274 27109 ft 308 kts 244°
2026-04-27 21:12 41.04149 6.94857 27109 ft 308 kts 244°
2026-04-27 21:12 41.03027 6.92441 27108 ft 308 kts 244°
2026-04-27 21:12 41.01909 6.90023 27110 ft 308 kts 244°
2026-04-27 21:13 41.00793 6.87602 27106 ft 308 kts 244°
2026-04-27 21:13 40.99678 6.85181 27107 ft 308 kts 244°
2026-04-27 21:13 40.98565 6.82757 27109 ft 308 kts 244°
2026-04-27 21:13 40.97454 6.80332 27110 ft 308 kts 244°
2026-04-27 21:14 40.96339 6.77902 27118 ft 308 kts 244°
2026-04-27 21:14 40.95227 6.75476 27118 ft 308 kts 244°
2026-04-27 21:14 40.94114 6.73051 27108 ft 309 kts 244°
2026-04-27 21:14 40.93001 6.70623 27112 ft 308 kts 245°
2026-04-27 21:15 40.91889 6.68200 27110 ft 308 kts 244°
2026-04-27 21:15 40.90769 6.65787 27114 ft 309 kts 241°
2026-04-27 21:15 40.89544 6.63451 27120 ft 309 kts 237°
2026-04-27 21:15 40.88316 6.61116 27123 ft 309 kts 241°
2026-04-27 21:16 40.87177 6.58715 27124 ft 309 kts 243°
2026-04-27 21:16 40.86044 6.56303 27126 ft 309 kts 242°
2026-04-27 21:16 40.84905 6.53890 27123 ft 309 kts 242°
2026-04-27 21:16 40.83779 6.51474 27121 ft 309 kts 242°
2026-04-27 21:17 40.82658 6.49054 27123 ft 309 kts 243°
2026-04-27 21:17 40.81539 6.46631 27123 ft 309 kts 243°
2026-04-27 21:17 40.80422 6.44211 27120 ft 309 kts 243°
2026-04-27 21:17 40.79304 6.41794 27121 ft 309 kts 243°
2026-04-27 21:18 40.78185 6.39378 27120 ft 309 kts 243°
2026-04-27 21:18 40.77065 6.36965 27119 ft 308 kts 243°
2026-04-27 21:18 40.75944 6.34554 27117 ft 308 kts 243°
2026-04-27 21:18 40.74823 6.32145 27120 ft 308 kts 243°
2026-04-27 21:19 40.73700 6.29736 27120 ft 308 kts 243°
2026-04-27 21:19 40.72579 6.27330 27119 ft 308 kts 242°
2026-04-27 21:19 40.71457 6.24928 27120 ft 308 kts 242°
2026-04-27 21:20 40.69215 6.20128 27120 ft 307 kts 242°
2026-04-27 21:20 40.68093 6.17729 27116 ft 307 kts 242°
2026-04-27 21:20 40.66972 6.15335 27120 ft 307 kts 242°
2026-04-27 21:20 40.65852 6.12943 27119 ft 307 kts 242°
2026-04-27 21:21 40.64730 6.10551 27119 ft 307 kts 242°
2026-04-27 21:21 40.63610 6.08164 27117 ft 306 kts 242°
2026-04-27 21:21 40.62490 6.05780 27116 ft 306 kts 242°
2026-04-27 21:21 40.61370 6.03396 27117 ft 306 kts 242°
2026-04-27 21:22 40.60251 6.01017 27116 ft 306 kts 242°
2026-04-27 21:22 40.59118 5.98609 27114 ft 305 kts 242°
2026-04-27 21:22 40.57999 5.96232 27118 ft 305 kts 242°
2026-04-27 21:22 40.56895 5.93891 27118 ft 305 kts 242°
2026-04-27 21:23 40.55777 5.91522 27118 ft 305 kts 242°
2026-04-27 21:23 40.54646 5.89125 27117 ft 305 kts 242°
2026-04-27 21:23 40.53529 5.86761 27113 ft 304 kts 242°
2026-04-27 21:23 40.52412 5.84400 27116 ft 304 kts 242°
2026-04-27 21:24 40.51296 5.82041 27115 ft 304 kts 242°
2026-04-27 21:24 40.50180 5.79685 27115 ft 304 kts 242°
2026-04-27 21:24 40.49063 5.77327 27117 ft 304 kts 241°
2026-04-27 21:24 40.47947 5.74975 27116 ft 303 kts 241°
2026-04-27 21:25 40.46832 5.72625 27119 ft 303 kts 241°
2026-04-27 21:25 40.45717 5.70278 27118 ft 303 kts 241°
2026-04-27 21:25 40.44599 5.67927 27115 ft 303 kts 241°
2026-04-27 21:25 40.43484 5.65583 27115 ft 303 kts 241°
2026-04-27 21:26 40.42369 5.63241 27113 ft 303 kts 241°
2026-04-27 21:26 40.41255 5.60902 27111 ft 302 kts 241°
2026-04-27 21:26 40.40120 5.58513 26713 ft 314 kts 241°
2026-04-27 21:26 40.38947 5.56034 26298 ft 324 kts 241°
2026-04-27 21:27 40.37739 5.53493 25884 ft 332 kts 240°
2026-04-27 21:27 40.36509 5.50918 25472 ft 334 kts 240°
2026-04-27 21:27 40.35273 5.48342 25068 ft 334 kts 240°
2026-04-27 21:27 40.34038 5.45764 24666 ft 334 kts 240°
2026-04-27 21:28 40.32802 5.43184 24270 ft 334 kts 240°
2026-04-27 21:28 40.31565 5.40604 23873 ft 334 kts 240°
2026-04-27 21:28 40.30326 5.38019 23446 ft 335 kts 240°
2026-04-27 21:28 40.29088 5.35438 22994 ft 335 kts 240°
2026-04-27 21:29 40.27849 5.32855 22544 ft 335 kts 240°
2026-04-27 21:29 40.26607 5.30269 22098 ft 336 kts 240°
2026-04-27 21:29 40.25360 5.27677 21654 ft 336 kts 240°
2026-04-27 21:29 40.24113 5.25087 21223 ft 337 kts 240°
2026-04-27 21:30 40.22864 5.22495 20797 ft 337 kts 240°
2026-04-27 21:30 40.21617 5.19908 20377 ft 336 kts 240°
2026-04-27 21:30 40.20373 5.17321 19963 ft 335 kts 240°
2026-04-27 21:30 40.19134 5.14747 19556 ft 334 kts 240°
2026-04-27 21:31 40.17899 5.12184 19138 ft 333 kts 240°
2026-04-27 21:31 40.16665 5.09629 18716 ft 332 kts 240°
2026-04-27 21:31 40.15434 5.07085 18286 ft 330 kts 240°
2026-04-27 21:31 40.14208 5.04554 17809 ft 329 kts 239°
2026-04-27 21:32 40.12987 5.02036 17340 ft 327 kts 239°
2026-04-27 21:32 40.11770 4.99533 16873 ft 325 kts 239°
2026-04-27 21:32 40.10560 4.97043 16418 ft 324 kts 239°
2026-04-27 21:32 40.09356 4.94570 15968 ft 322 kts 239°
2026-04-27 21:33 40.08158 4.92111 15523 ft 320 kts 239°
2026-04-27 21:33 40.06966 4.89668 15085 ft 318 kts 239°
2026-04-27 21:33 40.05781 4.87238 14658 ft 317 kts 239°
2026-04-27 21:33 40.04599 4.84817 14231 ft 315 kts 238°
2026-04-27 21:34 40.03423 4.82415 13796 ft 313 kts 238°
2026-04-27 21:34 40.02252 4.80033 13323 ft 310 kts 238°
2026-04-27 21:34 40.01110 4.77685 12857 ft 305 kts 238°
2026-04-27 21:34 39.99974 4.75373 12401 ft 301 kts 238°
2026-04-27 21:35 39.98854 4.73097 12152 ft 291 kts 238°
2026-04-27 21:35 39.97790 4.70944 12126 ft 279 kts 238°
2026-04-27 21:35 39.96748 4.68828 12112 ft 271 kts 238°
2026-04-27 21:35 39.95791 4.66754 12105 ft 264 kts 245°
2026-04-27 21:36 39.95232 4.64506 12102 ft 259 kts 257°
2026-04-27 21:36 39.94789 4.62239 12104 ft 257 kts 256°
2026-04-27 21:36 39.94314 4.59980 11874 ft 263 kts 256°
2026-04-27 21:36 39.93830 4.57647 11558 ft 270 kts 256°
2026-04-27 21:37 39.93344 4.55280 11244 ft 271 kts 256°
2026-04-27 21:37 39.92854 4.52912 10926 ft 268 kts 255°
2026-04-27 21:37 39.91959 4.50831 10610 ft 266 kts 226°
2026-04-27 21:37 39.90380 4.49647 10291 ft 265 kts 195°
2026-04-27 21:38 39.88560 4.49573 9980 ft 262 kts 173°
2026-04-27 21:38 39.86750 4.49759 9646 ft 260 kts 179°
2026-04-27 21:38 39.84948 4.49705 9306 ft 259 kts 184°
2026-04-27 21:38 39.83160 4.49458 8977 ft 257 kts 188°
2026-04-27 21:39 39.81385 4.49016 8647 ft 256 kts 193°
2026-04-27 21:39 39.79782 4.48086 8306 ft 254 kts 220°
2026-04-27 21:39 39.78834 4.46193 7899 ft 252 kts 254°
2026-04-27 21:39 39.78585 4.43986 7502 ft 241 kts 263°
2026-04-27 21:40 39.78325 4.41901 7190 ft 232 kts 260°
2026-04-27 21:40 39.78039 4.39877 6875 ft 224 kts 260°
2026-04-27 21:40 39.77765 4.37899 6581 ft 213 kts 261°
2026-04-27 21:40 39.77522 4.36068 6278 ft 202 kts 261°
2026-04-27 21:41 39.77284 4.34298 5966 ft 196 kts 260°
2026-04-27 21:41 39.77051 4.32570 5659 ft 192 kts 260°
2026-04-27 21:41 39.76824 4.30870 5368 ft 190 kts 260°
2026-04-27 21:41 39.76602 4.29197 5072 ft 181 kts 261°
2026-04-27 21:42 39.76422 4.27724 4800 ft 152 kts 261°
2026-04-27 21:42 39.76256 4.26442 4551 ft 138 kts 260°
2026-04-27 21:42 39.76079 4.25219 4328 ft 138 kts 258°
2026-04-27 21:42 39.75928 4.24079 4238 ft 122 kts 270°
2026-04-27 21:43 39.76213 4.23034 3811 ft 124 kts 310°
2026-04-27 21:43 39.76834 4.22281 3336 ft 127 kts 325°
2026-04-27 21:43 39.77563 4.21650 2948 ft 121 kts 332°
2026-04-27 21:43 39.78297 4.21133 2523 ft 121 kts 339°
2026-04-27 21:44 39.79084 4.20837 2158 ft 115 kts 354°
2026-04-27 21:44 39.79873 4.20739 1799 ft 112 kts 359°
2026-04-27 21:44 39.80634 4.20741 1492 ft 101 kts
2026-04-27 21:44 39.81256 4.20840 1253 ft 89 kts
2026-04-27 21:45 39.81911 4.20966 1113 ft 101 kts 14°
2026-04-27 21:45 39.82601 4.21132 913 ft 98 kts 10°
2026-04-27 21:45 39.83233 4.21248 689 ft 88 kts 12°
2026-04-27 21:45 39.83850 4.21373 551 ft 91 kts 12°
2026-04-27 21:46 39.84480 4.21498 434 ft 91 kts 12°
2026-04-27 21:46 39.85091 4.21626 329 ft 83 kts 11°
2026-04-27 21:46 39.85581 4.21728 286 ft 57 kts
2026-04-27 21:46 39.85836 4.21778 293 ft 25 kts 10°
2026-04-27 21:47 39.86026 4.21818 297 ft 32 kts
2026-04-27 21:47 39.86170 4.21848 297 ft 22 kts 11°
2026-04-27 21:47 39.86217 4.21945 294 ft 10 kts 92°
2026-04-27 21:47 39.86208 4.22037 293 ft 13 kts 86°
2026-04-27 21:48 39.86307 4.22112 289 ft 21 kts 11°
2026-04-27 21:48 39.86459 4.22143 288 ft 17 kts
2026-04-27 21:48 39.86532 4.22188 288 ft 11 kts 66°
2026-04-27 21:48 39.86536 4.22290 284 ft 10 kts 95°
2026-04-27 21:49 39.86581 4.22341 284 ft 9 kts 12°
2026-04-27 21:49 39.86628 4.22391 283 ft 14 kts 102°
2026-04-27 21:49 39.86617 4.22461 281 ft 0 kts 99°